| time (UTC) | temp C | wind direction | speed KPH | gust KPH | rain 1hr cm | rain 24hr cm | rain mn cm | humidity % | barometer mb |
| 20260508035538 | 6 | 221 | 1.6 | 3.2 | 0.00 | 0.71 | 0.71 | 78 | 1017.2 |
| 20260508035028 | 7 | 221 | 1.6 | 3.2 | 0.00 | 0.71 | 0.71 | 78 | 1017.1 |
| 20260508034629 | 7 | 221 | 1.6 | 3.2 | 0.00 | 0.71 | 0.71 | 77 | 1017.0 |
| 20260508034024 | 7 | 207 | 0.0 | 3.2 | 0.00 | 0.71 | 0.71 | 77 | 1017.0 |
| 20260508033534 | 7 | 148 | 1.6 | 3.2 | 0.00 | 0.71 | 0.71 | 77 | 1017.0 |
| 20260508033121 | 7 | 232 | 0.0 | 3.2 | 0.00 | 0.71 | 0.71 | 77 | 1016.9 |
| 20260508032522 | 7 | 232 | 1.6 | 3.2 | 0.00 | 0.71 | 0.71 | 76 | 1017.0 |
| 20260508032028 | 7 | 199 | 0.0 | 3.2 | 0.00 | 0.71 | 0.71 | 74 | 1016.9 |
| 20260508031601 | 7 | 199 | 0.0 | 4.8 | 0.00 | 0.71 | 0.71 | 74 | 1016.9 |
| 20260508031044 | 7 | 161 | 1.6 | 4.8 | 0.00 | 0.71 | 0.71 | 74 | 1016.9 |
| 20260508030519 | 7 | 231 | 1.6 | 3.2 | 0.00 | 0.71 | 0.71 | 72 | 1016.6 |
| 20260508030116 | 7 | 224 | 1.6 | 4.8 | 0.00 | 0.71 | 0.71 | 74 | 1016.5 |
| 20260508025537 | 7 | 224 | 3.2 | 4.8 | 0.00 | 0.71 | 0.71 | 75 | 1016.5 |
| 20260508025024 | 7 | 229 | 1.6 | 3.2 | 0.00 | 0.71 | 0.71 | 74 | 1016.5 |
| 20260508024609 | 6 | 229 | 3.2 | 3.2 | 0.00 | 0.71 | 0.71 | 75 | 1016.4 |
| 20260508024020 | 7 | 229 | 3.2 | 3.2 | 0.00 | 0.71 | 0.71 | 74 | 1016.4 |
| 20260508023530 | 7 | 229 | 1.6 | 3.2 | 0.00 | 0.71 | 0.71 | 73 | 1016.4 |
| 20260508023100 | 7 | 229 | 1.6 | 3.2 | 0.00 | 0.71 | 0.71 | 73 | 1016.4 |
| 20260508022539 | 7 | 229 | 1.6 | 4.8 | 0.00 | 0.71 | 0.71 | 74 | 1016.3 |
| 20260508022036 | 7 | 229 | 3.2 | 4.8 | 0.00 | 0.71 | 0.71 | 74 | 1016.3 |
| 20260508021633 | 7 | 231 | 3.2 | 4.8 | 0.00 | 0.71 | 0.71 | 73 | 1016.3 |
| 20260508021035 | 8 | 251 | 1.6 | 3.2 | 0.00 | 0.71 | 0.71 | 72 | 1016.3 |
| 20260508020605 | 8 | 276 | 0.0 | 3.2 | 0.00 | 0.71 | 0.71 | 72 | 1016.3 |
| 20260508020058 | 8 | 276 | 0.0 | 1.6 | 0.00 | 0.71 | 0.71 | 71 | 1016.3 |
| 20260508015522 | 8 | 276 | 0.0 | 1.6 | 0.00 | 0.71 | 0.71 | 73 | 1016.3 |
| 20260508015022 | 8 | 276 | 0.0 | 1.6 | 0.00 | 0.71 | 0.71 | 71 | 1016.3 |
| 20260508014608 | 8 | 276 | 0.0 | 1.6 | 0.00 | 0.71 | 0.71 | 71 | 1016.3 |
| 20260508014046 | 8 | 276 | 0.0 | 1.6 | 0.00 | 0.71 | 0.71 | 70 | 1016.0 |
| 20260508013527 | 9 | 276 | 0.0 | 1.6 | 0.00 | 0.71 | 0.71 | 68 | 1015.9 |
| 20260508013105 | 9 | 283 | 0.0 | 4.8 | 0.00 | 0.71 | 0.71 | 66 | 1016.0 |
| 20260508012552 | 10 | 283 | 0.0 | 8.0 | 0.00 | 0.71 | 0.71 | 63 | 1016.1 |
| 20260508012021 | 10 | 189 | 3.2 | 9.7 | 0.00 | 0.71 | 0.71 | 60 | 1015.9 |
| 20260508011556 | 10 | 254 | 1.6 | 9.7 | 0.00 | 0.71 | 0.71 | 59 | 1015.8 |
| 20260508011050 | 10 | 302 | 3.2 | 9.7 | 0.00 | 0.71 | 0.71 | 59 | 1016.0 |
| 20260508010539 | 10 | 276 | 1.6 | 9.7 | 0.00 | 0.71 | 0.71 | 59 | 1015.9 |
| 20260508010118 | 10 | 300 | 3.2 | 16.1 | 0.00 | 0.71 | 0.71 | 60 | 1015.8 |
| 20260508005542 | 10 | 278 | 4.8 | 16.1 | 0.00 | 0.71 | 0.71 | 58 | 1015.7 |
| 20260508005039 | 10 | 285 | 3.2 | 11.3 | 0.00 | 0.71 | 0.71 | 63 | 1015.7 |
| 20260508004608 | 10 | 267 | 1.6 | 20.9 | 0.00 | 0.71 | 0.71 | 65 | 1015.7 |
| 20260508004038 | 10 | 295 | 4.8 | 24.1 | 0.00 | 0.71 | 0.71 | 63 | 1015.9 |
| 20260508003537 | 9 | 293 | 9.7 | 24.1 | 0.00 | 0.71 | 0.71 | 57 | 1016.1 |
| 20260508003111 | 10 | 172 | 9.7 | 24.1 | 0.00 | 0.71 | 0.71 | 57 | 1015.9 |
| 20260508002542 | 9 | 265 | 6.4 | 24.1 | 0.00 | 0.71 | 0.71 | 63 | 1015.6 |
| 20260508002020 | 9 | 243 | 9.7 | 24.1 | 0.00 | 0.71 | 0.71 | 59 | 1015.8 |
| 20260508001604 | 9 | 226 | 11.3 | 27.4 | 0.00 | 0.71 | 0.71 | 65 | 1016.1 |
| 20260508001042 | 10 | 288 | 4.8 | 22.5 | 0.00 | 0.71 | 0.71 | 69 | 1016.1 |
| 20260508000543 | 10 | 274 | 6.4 | 24.1 | 0.00 | 0.71 | 0.71 | 72 | 1016.0 |
| 20260508000113 | 10 | 312 | 9.7 | 24.1 | 0.00 | 0.71 | 0.71 | 68 | 1016.1 |
| 20260507235535 | 9 | 276 | 8.0 | 19.3 | 0.00 | 0.71 | 0.71 | 72 | 1016.0 |
| 20260507235023 | 9 | 299 | 4.8 | 19.3 | 0.00 | 0.71 | 0.71 | 76 | 1015.9 |
| 20260507234603 | 9 | 281 | 3.2 | 11.3 | 0.00 | 0.71 | 0.71 | 76 | 1015.9 |
| 20260507234042 | 8 | 282 | 3.2 | 11.3 | 0.00 | 0.71 | 0.71 | 75 | 1015.9 |
| 20260507233522 | 8 | 250 | 1.6 | 12.9 | 0.00 | 0.71 | 0.71 | 77 | 1016.3 |
| 20260507233118 | 8 | 262 | 4.8 | 12.9 | 0.08 | 0.71 | 0.71 | 77 | 1016.2 |
| 20260507232534 | 8 | 291 | 3.2 | 16.1 | 0.15 | 0.71 | 0.71 | 81 | 1015.9 |
| 20260507232035 | 8 | 300 | 6.4 | 16.1 | 0.18 | 0.71 | 0.71 | 79 | 1016.0 |
| 20260507231610 | 7 | 297 | 1.6 | 17.7 | 0.20 | 0.71 | 0.71 | 82 | 1016.0 |
| 20260507231022 | 7 | 293 | 3.2 | 17.7 | 0.28 | 0.71 | 0.71 | 79 | 1016.0 |
| 20260507230538 | 7 | 245 | 4.8 | 20.9 | 0.28 | 0.71 | 0.71 | 82 | 1016.0 |
| 20260507230047 | 7 | 293 | 8.0 | 20.9 | 0.28 | 0.71 | 0.71 | 82 | 1016.1 |
| 20260507225535 | 6 | 328 | 4.8 | 19.3 | 0.28 | 0.71 | 0.71 | 82 | 1016.2 |
| 20260507225023 | 6 | 169 | 11.3 | 22.5 | 0.28 | 0.71 | 0.71 | 85 | 1016.3 |
| 20260507224642 | 6 | 316 | 8.0 | 22.5 | 0.28 | 0.71 | 0.71 | 86 | 1016.6 |
| 20260507224035 | 6 | 304 | 9.7 | 20.9 | 0.28 | 0.71 | 0.71 | 86 | 1016.7 |
| 20260507223530 | 6 | 264 | 8.0 | 29.0 | 0.23 | 0.66 | 0.66 | 86 | 1017.0 |
| 20260507223135 | 7 | 290 | 11.3 | 29.0 | 0.18 | 0.61 | 0.61 | 83 | 1016.7 |
| 20260507222539 | 8 | 305 | 6.4 | 17.7 | 0.10 | 0.53 | 0.53 | 77 | 1016.3 |
| 20260507222017 | 8 | 291 | 3.2 | 9.7 | 0.10 | 0.53 | 0.53 | 75 | 1016.1 |
| 20260507221637 | 10 | 149 | 0.0 | 12.9 | 0.05 | 0.48 | 0.48 | 68 | 1016.1 |
| 20260507221040 | 10 | 269 | 3.2 | 12.9 | 0.00 | 0.43 | 0.43 | 64 | 1015.9 |
| 20260507220551 | 11 | 255 | 3.2 | 8.0 | 0.00 | 0.43 | 0.43 | 65 | 1015.8 |
| 20260507220052 | 11 | 272 | 1.6 | 6.4 | 0.00 | 0.43 | 0.43 | 64 | 1015.8 |
| 20260507215556 | 11 | 264 | 1.6 | 8.0 | 0.00 | 0.43 | 0.43 | 64 | 1015.8 |
| 20260507215100 | 11 | 279 | 1.6 | 11.3 | 0.00 | 0.43 | 0.43 | 63 | 1015.8 |
| 20260507214623 | 11 | 302 | 1.6 | 11.3 | 0.00 | 0.43 | 0.43 | 63 | 1015.9 |
| 20260507214049 | 11 | 280 | 3.2 | 11.3 | 0.00 | 0.43 | 0.43 | 64 | 1015.9 |
| 20260507213531 | 11 | 285 | 1.6 | 8.0 | 0.00 | 0.43 | 0.43 | 61 | 1016.1 |
| 20260507213119 | 11 | 236 | 1.6 | 11.3 | 0.00 | 0.43 | 0.43 | 65 | 1016.1 |
| 20260507212526 | 11 | 292 | 4.8 | 11.3 | 0.00 | 0.43 | 0.43 | 64 | 1016.1 |
| 20260507212041 | 11 | 243 | 4.8 | 11.3 | 0.00 | 0.43 | 0.43 | 63 | 1016.1 |
| 20260507211550 | 10 | 201 | 3.2 | 8.0 | 0.00 | 0.43 | 0.43 | 66 | 1016.2 |
| 20260507211026 | 9 | 312 | 3.2 | 8.0 | 0.00 | 0.43 | 0.43 | 68 | 1016.3 |
| 20260507210544 | 9 | 296 | 3.2 | 9.7 | 0.00 | 0.43 | 0.43 | 71 | 1016.4 |
| 20260507210124 | 9 | 300 | 4.8 | 11.3 | 0.00 | 0.43 | 0.43 | 70 | 1016.6 |
| 20260507205524 | 9 | 280 | 4.8 | 14.5 | 0.00 | 0.43 | 0.43 | 70 | 1016.5 |
| 20260507205055 | 9 | 300 | 4.8 | 14.5 | 0.00 | 0.43 | 0.43 | 73 | 1016.6 |
| 20260507204639 | 10 | 258 | 6.4 | 14.5 | 0.00 | 0.43 | 0.43 | 75 | 1016.4 |
| 20260507204023 | 10 | 240 | 4.8 | 14.5 | 0.00 | 0.43 | 0.43 | 73 | 1016.5 |
| 20260507203520 | 10 | 217 | 6.4 | 14.5 | 0.00 | 0.43 | 0.43 | 68 | 1016.4 |
| 20260507203107 | 11 | 283 | 4.8 | 14.5 | 0.00 | 0.43 | 0.43 | 65 | 1016.3 |
| 20260507202535 | 11 | 276 | 4.8 | 12.9 | 0.00 | 0.43 | 0.43 | 65 | 1016.3 |
| 20260507202018 | 11 | 236 | 4.8 | 17.7 | 0.00 | 0.43 | 0.43 | 65 | 1016.3 |
| 20260507201614 | 12 | 245 | 4.8 | 17.7 | 0.00 | 0.43 | 0.43 | 62 | 1016.4 |
| 20260507201023 | 12 | 139 | 4.8 | 16.1 | 0.00 | 0.43 | 0.43 | 62 | 1016.1 |
| 20260507200540 | 13 | 291 | 8.0 | 17.7 | 0.00 | 0.43 | 0.43 | 59 | 1016.0 |
| 20260507200127 | 12 | 282 | 4.8 | 17.7 | 0.00 | 0.43 | 0.43 | 60 | 1016.2 |
| 20260507195522 | 13 | 306 | 6.4 | 17.7 | 0.00 | 0.43 | 0.43 | 60 | 1016.3 |
| 20260507195036 | 12 | 285 | 6.4 | 16.1 | 0.00 | 0.43 | 0.43 | 61 | 1016.3 |
| 20260507194608 | 12 | 248 | 4.8 | 12.9 | 0.00 | 0.43 | 0.43 | 61 | 1016.3 |
| 20260507194023 | 12 | 256 | 3.2 | 12.9 | 0.00 | 0.43 | 0.43 | 64 | 1016.4 |
| 20260507193521 | 12 | 288 | 4.8 | 12.9 | 0.00 | 0.43 | 0.43 | 67 | 1016.3 |
| 20260507193130 | 12 | 257 | 3.2 | 12.9 | 0.00 | 0.43 | 0.43 | 63 | 1016.3 |
| 20260507192527 | 11 | 150 | 3.2 | 12.9 | 0.00 | 0.43 | 0.43 | 65 | 1016.3 |
| 20260507192027 | 11 | 278 | 4.8 | 16.1 | 0.00 | 0.43 | 0.43 | 62 | 1016.2 |
| 20260507191629 | 11 | 163 | 4.8 | 16.1 | 0.00 | 0.43 | 0.43 | 63 | 1016.3 |
| 20260507191033 | 11 | 311 | 4.8 | 11.3 | 0.00 | 0.43 | 0.43 | 66 | 1016.2 |
| 20260507190534 | 10 | 114 | 4.8 | 12.9 | 0.00 | 0.43 | 0.43 | 68 | 1016.2 |
| 20260507190148 | 10 | 247 | 4.8 | 16.1 | 0.00 | 0.43 | 0.43 | 68 | 1016.3 |
| 20260507185538 | 10 | 286 | 8.0 | 16.1 | 0.00 | 0.43 | 0.43 | 67 | 1016.3 |
| 20260507185032 | 10 | 318 | 6.4 | 16.1 | 0.00 | 0.43 | 0.43 | 67 | 1016.3 |
| 20260507184636 | 11 | 215 | 6.4 | 20.9 | 0.00 | 0.43 | 0.43 | 66 | 1016.4 |
| 20260507184039 | 11 | 262 | 9.7 | 20.9 | 0.00 | 0.43 | 0.43 | 66 | 1016.2 |
| 20260507183540 | 11 | 311 | 6.4 | 14.5 | 0.00 | 0.43 | 0.43 | 67 | 1016.4 |
| 20260507183118 | 10 | 302 | 4.8 | 11.3 | 0.00 | 0.43 | 0.43 | 67 | 1016.4 |
| 20260507182530 | 10 | 284 | 3.2 | 9.7 | 0.00 | 0.43 | 0.43 | 72 | 1016.3 |
| 20260507182026 | 9 | 275 | 1.6 | 9.7 | 0.00 | 0.43 | 0.43 | 74 | 1016.4 |
| 20260507181607 | 8 | 269 | 1.6 | 11.3 | 0.00 | 0.43 | 0.43 | 74 | 1016.4 |
| 20260507181034 | 9 | 258 | 1.6 | 11.3 | 0.00 | 0.43 | 0.43 | 75 | 1016.6 |
| 20260507180540 | 10 | 270 | 1.6 | 16.1 | 0.00 | 0.43 | 0.43 | 73 | 1016.5 |
| 20260507180122 | 10 | 287 | 3.2 | 16.1 | 0.00 | 0.43 | 0.43 | 72 | 1016.5 |
| 20260507175526 | 11 | 250 | 1.6 | 8.0 | 0.00 | 0.43 | 0.43 | 71 | 1016.4 |
| 20260507175040 | 11 | 152 | 1.6 | 11.3 | 0.00 | 0.43 | 0.43 | 69 | 1016.5 |
| 20260507174641 | 11 | 287 | 0.0 | 14.5 | 0.00 | 0.43 | 0.43 | 71 | 1016.4 |
| 20260507174021 | 11 | 314 | 3.2 | 14.5 | 0.00 | 0.43 | 0.43 | 74 | 1016.4 |
| 20260507173521 | 11 | 299 | 3.2 | 9.7 | 0.00 | 0.43 | 0.43 | 73 | 1016.3 |
| 20260507173125 | 10 | 248 | 1.6 | 9.7 | 0.00 | 0.43 | 0.43 | 75 | 1016.4 |
| 20260507172519 | 10 | 302 | 1.6 | 11.3 | 0.00 | 0.43 | 0.43 | 71 | 1016.3 |
| 20260507172036 | 10 | 255 | 3.2 | 11.3 | 0.00 | 0.43 | 0.43 | 73 | 1016.2 |
| 20260507171553 | 10 | 304 | 4.8 | 12.9 | 0.00 | 0.43 | 0.43 | 76 | 1016.4 |
| 20260507171043 | 10 | 232 | 4.8 | 12.9 | 0.00 | 0.43 | 0.43 | 77 | 1016.4 |
| 20260507170541 | 10 | 303 | 3.2 | 9.7 | 0.00 | 0.43 | 0.43 | 74 | 1016.5 |
| 20260507170112 | 11 | 243 | 4.8 | 11.3 | 0.00 | 0.43 | 0.43 | 74 | 1016.3 |
| 20260507165519 | 11 | 283 | 3.2 | 12.9 | 0.00 | 0.43 | 0.43 | 74 | 1016.3 |
| 20260507165025 | 11 | 304 | 4.8 | 12.9 | 0.00 | 0.43 | 0.43 | 77 | 1016.3 |
| 20260507164643 | 10 | 283 | 4.8 | 12.9 | 0.00 | 0.43 | 0.43 | 78 | 1016.2 |
| 20260507164043 | 10 | 249 | 3.2 | 12.9 | 0.00 | 0.43 | 0.43 | 79 | 1016.2 |
| 20260507163533 | 10 | 265 | 3.2 | 11.3 | 0.00 | 0.43 | 0.43 | 84 | 1016.2 |
| 20260507163125 | 10 | 277 | 4.8 | 11.3 | 0.00 | 0.43 | 0.43 | 81 | 1016.2 |
| 20260507162534 | 10 | 283 | 3.2 | 9.7 | 0.00 | 0.43 | 0.43 | 81 | 1016.3 |
| 20260507162021 | 10 | 285 | 0.0 | 11.3 | 0.00 | 0.43 | 0.43 | 85 | 1016.2 |
| 20260507161613 | 9 | 270 | 1.6 | 11.3 | 0.00 | 0.43 | 0.43 | 85 | 1016.2 |
| 20260507161033 | 9 | 311 | 3.2 | 11.3 | 0.00 | 0.43 | 0.43 | 85 | 1016.2 |
| 20260507160527 | 9 | 303 | 3.2 | 9.7 | 0.00 | 0.43 | 0.43 | 86 | 1016.3 |
| 20260507160141 | 8 | 255 | 3.2 | 12.9 | 0.00 | 0.43 | 0.43 | 86 | 1016.2 |
| 20260507155521 | 8 | 133 | 1.6 | 8.0 | 0.00 | 0.43 | 0.43 | 90 | 1016.3 |
| 20260507155036 | 8 | 245 | 1.6 | 4.8 | 0.00 | 0.43 | 0.43 | 89 | 1016.4 |
| 20260507154612 | 7 | 289 | 0.0 | 4.8 | 0.00 | 0.43 | 0.43 | 91 | 1016.4 |
| 20260507154026 | 7 | 251 | 0.0 | 4.8 | 0.00 | 0.43 | 0.43 | 90 | 1016.4 |
| 20260507153526 | 7 | 252 | 0.0 | 4.8 | 0.00 | 0.43 | 0.43 | 90 | 1016.2 |
| 20260507153059 | 7 | 272 | 0.0 | 4.8 | 0.00 | 0.43 | 0.43 | 90 | 1016.2 |
| 20260507152536 | 7 | 278 | 0.0 | 4.8 | 0.00 | 0.43 | 0.43 | 92 | 1016.2 |
| 20260507152021 | 7 | 257 | 0.0 | 3.2 | 0.00 | 0.43 | 0.43 | 92 | 1016.1 |
| 20260507151609 | 6 | 243 | 0.0 | 3.2 | 0.00 | 0.43 | 0.43 | 92 | 1016.0 |
| 20260507151039 | 6 | 240 | 0.0 | 1.6 | 0.00 | 0.43 | 0.43 | 92 | 1016.1 |
| 20260507150536 | 6 | 240 | 0.0 | 6.4 | 0.00 | 0.43 | 0.43 | 92 | 1016.0 |
| 20260507150139 | 6 | 125 | 0.0 | 4.8 | 0.00 | 0.43 | 0.43 | 92 | 1015.9 |
| 20260507145538 | 5 | 146 | 1.6 | 4.8 | 0.00 | 0.43 | 0.43 | 92 | 1015.8 |
| 20260507145023 | 6 | 266 | 0.0 | 4.8 | 0.00 | 0.43 | 0.43 | 92 | 1015.7 |
| 20260507144606 | 5 | 99 | 0.0 | 9.7 | 0.00 | 0.43 | 0.43 | 92 | 1015.6 |
| 20260507144033 | 5 | 229 | 1.6 | 9.7 | 0.00 | 0.43 | 0.43 | 93 | 1015.5 |
| 20260507143536 | 5 | 124 | 0.0 | 3.2 | 0.00 | 0.43 | 0.43 | 93 | 1015.5 |
| 20260507143120 | 5 | 295 | 0.0 | 3.2 | 0.00 | 0.43 | 0.43 | 93 | 1015.5 |
| 20260507142520 | 5 | 133 | 0.0 | 1.6 | 0.00 | 0.43 | 0.43 | 94 | 1015.5 |
| 20260507142031 | 5 | 133 | 0.0 | 1.6 | 0.10 | 0.43 | 0.43 | 94 | 1015.5 |
| 20260507141627 | 5 | 133 | 0.0 | 1.6 | 0.10 | 0.43 | 0.43 | 94 | 1015.5 |
| 20260507141044 | 5 | 133 | 0.0 | 1.6 | 0.10 | 0.43 | 0.43 | 94 | 1015.4 |
| 20260507140537 | 5 | 233 | 0.0 | 1.6 | 0.10 | 0.43 | 0.43 | 94 | 1015.2 |
| 20260507140115 | 5 | 236 | 0.0 | 1.6 | 0.10 | 0.43 | 0.43 | 94 | 1015.1 |
| 20260507135526 | 5 | 136 | 0.0 | 1.6 | 0.10 | 0.43 | 0.43 | 94 | 1015.1 |
| 20260507135046 | 4 | 136 | 0.0 | 0.0 | 0.10 | 0.43 | 0.43 | 94 | 1015.1 |
| 20260507134609 | 4 | 136 | 0.0 | 1.6 | 0.10 | 0.43 | 0.43 | 93 | 1015.1 |
| 20260507134038 | 4 | 136 | 0.0 | 1.6 | 0.10 | 0.43 | 0.43 | 93 | 1015.0 |
| 20260507133522 | 4 | 293 | 0.0 | 3.2 | 0.10 | 0.43 | 0.43 | 92 | 1015.1 |
| 20260507133123 | 4 | 293 | 0.0 | 11.3 | 0.10 | 0.43 | 0.43 | 92 | 1015.2 |
| 20260507132533 | 4 | 84 | 1.6 | 20.9 | 0.10 | 0.41 | 0.41 | 92 | 1014.9 |
| 20260507132032 | 4 | 292 | 3.2 | 20.9 | 0.05 | 0.30 | 0.30 | 93 | 1015.4 |
| 20260507131612 | 4 | 116 | 0.0 | 1.6 | 0.08 | 0.30 | 0.30 | 92 | 1014.7 |
| 20260507131027 | 4 | 117 | 0.0 | 0.0 | 0.10 | 0.30 | 0.30 | 92 | 1014.7 |
| 20260507130546 | 4 | 116 | 0.0 | 3.2 | 0.15 | 0.30 | 0.30 | 92 | 1014.6 |
| 20260507130139 | 4 | 117 | 0.0 | 4.8 | 0.20 | 0.30 | 0.30 | 92 | 1014.6 |
| 20260507125548 | 4 | 128 | 0.0 | 4.8 | 0.20 | 0.30 | 0.30 | 92 | 1014.7 |
| 20260507125044 | 4 | 238 | 0.0 | 3.2 | 0.20 | 0.30 | 0.30 | 92 | 1014.7 |
| 20260507124635 | 4 | 276 | 0.0 | 4.8 | 0.20 | 0.30 | 0.30 | 91 | 1014.6 |
| 20260507124045 | 4 | 255 | 0.0 | 11.3 | 0.20 | 0.30 | 0.30 | 91 | 1014.5 |
| 20260507123526 | 4 | 241 | 4.8 | 11.3 | 0.20 | 0.30 | 0.30 | 91 | 1014.9 |
| 20260507123142 | 4 | 278 | 3.2 | 11.3 | 0.20 | 0.30 | 0.30 | 91 | 1014.7 |
| 20260507122542 | 4 | 252 | 1.6 | 9.7 | 0.20 | 0.28 | 0.28 | 90 | 1014.9 |
| 20260507122036 | 5 | 299 | 3.2 | 9.7 | 0.18 | 0.23 | 0.23 | 90 | 1014.9 |
| 20260507121644 | 5 | 280 | 1.6 | 11.3 | 0.10 | 0.20 | 0.20 | 90 | 1014.9 |
| 20260507121025 | 5 | 257 | 3.2 | 11.3 | 0.10 | 0.20 | 0.20 | 89 | 1014.8 |
| 20260507120527 | 5 | 256 | 3.2 | 11.3 | 0.08 | 0.15 | 0.15 | 88 | 1014.9 |
| 20260507120151 | 5 | 264 | 1.6 | 6.4 | 0.03 | 0.10 | 0.10 | 87 | 1014.8 |
| 20260507115547 | 5 | 274 | 0.0 | 6.4 | 0.03 | 0.10 | 0.10 | 88 | 1014.6 |
| 20260507115036 | 5 | 176 | 0.0 | 3.2 | 0.03 | 0.10 | 0.10 | 88 | 1014.5 |
| 20260507114649 | 5 | 120 | 0.0 | 4.8 | 0.03 | 0.10 | 0.10 | 87 | 1014.6 |
| 20260507114031 | 5 | 241 | 1.6 | 8.0 | 0.03 | 0.10 | 0.10 | 86 | 1014.5 |
| 20260507113613 | 5 | 246 | 1.6 | 8.0 | 0.03 | 0.10 | 0.10 | 85 | 1014.5 |
| 20260507113130 | 5 | 281 | 0.0 | 8.0 | 0.03 | 0.10 | 0.10 | 86 | 1014.4 |
| 20260507112544 | 5 | 225 | 0.0 | 1.6 | 0.03 | 0.08 | 0.08 | 86 | 1014.5 |
| 20260507112021 | 5 | 146 | 0.0 | 4.8 | 0.03 | 0.08 | 0.08 | 85 | 1014.6 |
| 20260507111652 | 5 | 127 | 1.6 | 4.8 | 0.03 | 0.08 | 0.08 | 84 | 1014.5 |
| 20260507111028 | 5 | 236 | 0.0 | 6.4 | 0.03 | 0.08 | 0.08 | 84 | 1014.6 |
| 20260507110547 | 5 | 119 | 0.0 | 8.0 | 0.03 | 0.08 | 0.08 | 83 | 1014.7 |
| 20260507110147 | 6 | 285 | 1.6 | 8.0 | 0.03 | 0.08 | 0.08 | 83 | 1014.9 |
| 20260507105542 | 6 | 283 | 0.0 | 9.7 | 0.03 | 0.08 | 0.08 | 82 | 1015.0 |
| 20260507105026 | 6 | 285 | 1.6 | 17.7 | 0.03 | 0.08 | 0.08 | 82 | 1014.7 |
| 20260507104644 | 6 | 243 | 4.8 | 19.3 | 0.03 | 0.08 | 0.08 | 82 | 1014.3 |
| 20260507104047 | 6 | 120 | 4.8 | 19.3 | 0.03 | 0.08 | 0.08 | 82 | 1014.3 |
| 20260507103519 | 5 | 122 | 1.6 | 8.0 | 0.05 | 0.08 | 0.08 | 84 | 1014.4 |
| 20260507103149 | 5 | 218 | 1.6 | 19.3 | 0.05 | 0.08 | 0.08 | 84 | 1014.9 |
| 20260507102518 | 6 | 242 | 3.2 | 24.1 | 0.03 | 0.05 | 0.05 | 83 | 1015.2 |
| 20260507102034 | 6 | 255 | 6.4 | 24.1 | 0.03 | 0.05 | 0.05 | 83 | 1015.2 |
| 20260507101638 | 6 | 263 | 6.4 | 22.5 | 0.03 | 0.05 | 0.05 | 83 | 1015.0 |
| 20260507101047 | 6 | 217 | 8.0 | 32.2 | 0.03 | 0.05 | 0.05 | 83 | 1015.1 |
| 20260507100521 | 6 | 97 | 4.8 | 19.3 | 0.03 | 0.05 | 0.05 | 82 | 1015.1 |
| 20260507100126 | 6 | 281 | 4.8 | 20.9 | 0.03 | 0.05 | 0.05 | 81 | 1015.2 |
| 20260507095539 | 7 | 273 | 4.8 | 33.8 | 0.03 | 0.05 | 0.05 | 80 | 1015.3 |
| 20260507095045 | 7 | 320 | 8.0 | 33.8 | 0.03 | 0.05 | 0.05 | 77 | 1015.1 |
| 20260507094648 | 7 | 67 | 4.8 | 16.1 | 0.03 | 0.05 | 0.05 | 76 | 1014.7 |
| 20260507094052 | 7 | 110 | 1.6 | 8.0 | 0.03 | 0.05 | 0.05 | 75 | 1014.7 |
| 20260507093600 | 8 | 98 | 1.6 | 9.7 | 0.00 | 0.03 | 0.03 | 74 | 1014.7 |
| 20260507093116 | 8 | 262 | 3.2 | 11.3 | 0.00 | 0.03 | 0.03 | 71 | 1014.7 |
| 20260507092547 | 8 | 157 | 1.6 | 4.8 | 0.00 | 0.03 | 0.03 | 69 | 1014.5 |
| 20260507092048 | 7 | 123 | 0.0 | 3.2 | 0.00 | 0.03 | 0.03 | 71 | 1014.5 |
| 20260507091632 | 7 | 133 | 1.6 | 3.2 | 0.00 | 0.03 | 0.03 | 71 | 1014.3 |
| 20260507091036 | 7 | 116 | 0.0 | 4.8 | 0.00 | 0.03 | 0.03 | 71 | 1014.3 |
| 20260507090532 | 7 | 130 | 0.0 | 4.8 | 0.00 | 0.03 | 0.03 | 70 | 1014.2 |
| 20260507090133 | 7 | 140 | 0.0 | 4.8 | 0.00 | 0.03 | 0.03 | 70 | 1014.2 |
| 20260507085536 | 7 | 115 | 1.6 | 4.8 | 0.00 | 0.03 | 0.03 | 70 | 1014.0 |
| 20260507085039 | 7 | 132 | 0.0 | 4.8 | 0.00 | 0.03 | 0.03 | 70 | 1014.0 |
| 20260507084634 | 7 | 146 | 0.0 | 8.0 | 0.00 | 0.03 | 0.03 | 70 | 1014.0 |
| 20260507084036 | 7 | 146 | 0.0 | 8.0 | 0.00 | 0.03 | 0.03 | 71 | 1014.0 |
| 20260507083551 | 7 | 139 | 0.0 | 6.4 | 0.00 | 0.03 | 0.03 | 71 | 1014.1 |
| 20260507083115 | 7 | 124 | 0.0 | 6.4 | 0.00 | 0.03 | 0.03 | 72 | 1014.0 |
| 20260507082543 | 7 | 110 | 1.6 | 4.8 | 0.03 | 0.03 | 0.03 | 72 | 1014.1 |
| 20260507082037 | 7 | 270 | 0.0 | 3.2 | 0.03 | 0.03 | 0.03 | 72 | 1014.1 |
| 20260507081648 | 7 | 127 | 0.0 | 4.8 | 0.03 | 0.03 | 0.03 | 73 | 1014.2 |
| 20260507081023 | 7 | 146 | 0.0 | 6.4 | 0.03 | 0.03 | 0.03 | 73 | 1014.1 |
| 20260507080521 | 7 | 133 | 0.0 | 6.4 | 0.03 | 0.03 | 0.03 | 73 | 1014.2 |
| 20260507080119 | 7 | 243 | 0.0 | 4.8 | 0.03 | 0.03 | 0.03 | 73 | 1014.1 |
| 20260507075549 | 7 | 136 | 1.6 | 4.8 | 0.03 | 0.03 | 0.03 | 72 | 1014.1 |
| 20260507075024 | 7 | 115 | 1.6 | 4.8 | 0.03 | 0.03 | 0.03 | 73 | 1014.0 |
| 20260507074621 | 7 | 136 | 0.0 | 4.8 | 0.03 | 0.03 | 0.03 | 74 | 1014.1 |
| 20260507074048 | 7 | 134 | 0.0 | 4.8 | 0.03 | 0.03 | 0.03 | 74 | 1014.1 |
| 20260507073526 | 7 | 162 | 0.0 | 8.0 | 0.03 | 0.03 | 0.03 | 75 | 1014.1 |
| 20260507073054 | 7 | 144 | 0.0 | 8.0 | 0.00 | 0.00 | 0.00 | 74 | 1014.1 |
| 20260507072540 | 7 | 200 | 0.0 | 3.2 | 0.00 | 0.00 | 0.00 | 75 | 1014.1 |
| 20260507072015 | 7 | 120 | 0.0 | 3.2 | 0.00 | 0.00 | 0.00 | 74 | 1014.0 |
| 20260507071556 | 7 | 134 | 0.0 | 4.8 | 0.00 | 0.00 | 0.00 | 75 | 1014.1 |
| 20260507071035 | 7 | 213 | 0.0 | 6.4 | 0.00 | 0.00 | 0.00 | 74 | 1014.1 |
| 20260507070539 | 7 | 139 | 1.6 | 6.4 | 0.00 | 0.00 | 0.00 | 73 | 1014.1 |
| 20260507070113 | 7 | 248 | 1.6 | 6.4 | 0.00 | 0.00 | 0.00 | 73 | 1014.1 |
| 20260507065540 | 7 | 156 | 1.6 | 9.7 | 0.00 | 0.00 | 0.00 | 73 | 1014.1 |
| 20260507065038 | 7 | 135 | 3.2 | 9.7 | 0.00 | 0.00 | 0.00 | 75 | 1014.1 |
| 20260507064559 | 7 | 245 | 0.0 | 6.4 | 0.00 | 0.00 | 0.00 | 75 | 1014.0 |
| 20260507064045 | 7 | 300 | 0.0 | 6.4 | 0.00 | 0.00 | 0.00 | 73 | 1014.0 |
| 20260507063531 | 7 | 88 | 0.0 | 8.0 | 0.00 | 0.00 | 0.00 | 74 | 1014.0 |
| 20260507063049 | 7 | 272 | 1.6 | 11.3 | 0.00 | 0.00 | 0.00 | 75 | 1014.2 |
| 20260507062524 | 7 | 257 | 4.8 | 11.3 | 0.00 | 0.00 | 0.00 | 76 | 1014.3 |
| 20260507062358 | 7 | 140 | 0.0 | 12.9 | 0.00 | 0.00 | 0.00 | 76 | 1014.4 |
| 20260507061639 | 7 | 257 | 1.6 | 12.9 | 0.00 | 0.00 | 0.00 | 76 | 1014.6 |
| 20260507061041 | 8 | 239 | 1.6 | 16.1 | 0.00 | 0.00 | 0.00 | 76 | 1014.7 |
| 20260507060543 | 8 | 274 | 4.8 | 16.1 | 0.00 | 0.00 | 0.00 | 74 | 1014.6 |
| 20260507060153 | 8 | 225 | 6.4 | 22.5 | 0.00 | 0.00 | 0.00 | 71 | 1014.3 |
| 20260507055515 | 8 | 265 | 6.4 | 22.5 | 0.00 | 0.00 | 0.00 | 69 | 1014.3 |
| 20260507055032 | 8 | 285 | 4.8 | 14.5 | 0.00 | 0.00 | 0.00 | 71 | 1014.5 |
| 20260507054651 | 8 | 261 | 3.2 | 11.3 | 0.00 | 0.00 | 0.00 | 71 | 1014.5 |
| 20260507054021 | 8 | 240 | 3.2 | 11.3 | 0.00 | 0.00 | 0.00 | 70 | 1014.5 |
| 20260507053521 | 8 | 70 | 3.2 | 11.3 | 0.00 | 0.00 | 0.00 | 70 | 1014.4 |
| 20260507053124 | 8 | 145 | 4.8 | 11.3 | 0.00 | 0.00 | 0.00 | 69 | 1014.4 |
| 20260507052518 | 8 | 103 | 1.6 | 16.1 | 0.00 | 0.00 | 0.00 | 70 | 1014.5 |
| 20260507052015 | 8 | 257 | 3.2 | 16.1 | 0.00 | 0.00 | 0.00 | 70 | 1014.5 |
| 20260507051649 | 8 | 287 | 3.2 | 12.9 | 0.00 | 0.00 | 0.00 | 71 | 1014.5 |
| 20260507051032 | 8 | 134 | 1.6 | 11.3 | 0.00 | 0.00 | 0.00 | 71 | 1014.3 |
| 20260507050524 | 8 | 245 | 4.8 | 14.5 | 0.00 | 0.00 | 0.00 | 71 | 1014.6 |
| 20260507050202 | 8 | 193 | 3.2 | 17.7 | 0.00 | 0.00 | 0.00 | 72 | 1014.5 |
| 20260507045529 | 9 | 150 | 6.4 | 30.6 | 0.00 | 0.00 | 0.00 | 70 | 1014.5 |
| 20260507045026 | 10 | 290 | 8.0 | 30.6 | 0.00 | 0.00 | 0.00 | 67 | 1014.6 |
| 20260507044621 | 11 | 120 | 11.3 | 32.2 | 0.00 | 0.00 | 0.00 | 61 | 1014.3 |
| 20260507044035 | 11 | 162 | 4.8 | 16.1 | 0.00 | 0.00 | 0.00 | 56 | 1014.4 |
| 20260507043532 | 11 | 80 | 3.2 | 11.3 | 0.00 | 0.00 | 0.00 | 55 | 1014.1 |
| 20260507043135 | 11 | 224 | 3.2 | 11.3 | 0.00 | 0.00 | 0.00 | 55 | 1013.9 |
| 20260507042533 | 11 | 136 | 4.8 | 9.7 | 0.00 | 0.00 | 0.00 | 55 | 1014.0 |
| 20260507042034 | 11 | 262 | 3.2 | 16.1 | 0.00 | 0.00 | 0.00 | 56 | 1013.9 |
| 20260507041637 | 11 | 360 | 4.8 | 16.1 | 0.00 | 0.00 | 0.00 | 54 | 1013.9 |
| 20260507041017 | 11 | 85 | 4.8 | 12.9 | 0.00 | 0.00 | 0.00 | 54 | 1013.9 |
| 20260507040545 | 11 | 63 | 4.8 | 9.7 | 0.00 | 0.00 | 0.00 | 54 | 1014.0 |
| 20260507040131 | 11 | 70 | 1.6 | 9.7 | 0.00 | 0.00 | 0.00 | 53 | 1013.8 |